Tracking 19146 objects as of 23-Apr-2018
HD Live streaming from Space Station
objects crossing your sky now

NIMBUS 2 DEB

Track NIMBUS 2 DEB now!
10-day predictions


NORAD ID: 28206
Int'l Code: 1966-040U
Perigee: 1,076.7 km
Apogee: 1,144.1 km
Inclination: 100.4 °
Period: 107.3 minutes
Semi major axis: 7481 km
RCS: 0.0203 m2 (small)
Launch date: May 15, 1966
Source: United States (US)
Launch site: AIR FORCE WESTERN TEST RANGE (AFWTR)

Note: This is SATELLITE DEBRIS
aabbcc
Your satellite tracking list
Your tracking list is empty




NASA's NSSDC Master Catalog

Two Line Element Set (TLE):
1 28206U 66040U   18112.88143188 +.00000671 +00000-0 +12794-2 0  9997
2 28206 100.3771 229.8632 0045062 319.0255 161.5284 13.41621589691983
Source of the keplerian elements: AFSPC